When you browse on this site, cookies collect data to enhance your experience and personalize the content and advertising you see.
Visit our Privacy Policy to learn more. By continuing to use the site, you agree to this use of cookies and data.

Hourly Weather Hobart

Today, 13 August, Thursday

Time Temperature Precipitation Wind Pressure Humidity
00:00 +6°C° 0 mm 2 mps 743 mmHg 91%
01:00 +5°C° 0 mm 2 mps 743 mmHg 93%
02:00 +6°C° 0 mm 1 mps 743 mmHg 93%
03:00 +6°C° 0 mm 1 mps 744 mmHg 93%
04:00 +6°C° 0 mm 1 mps 744 mmHg 94%
05:00 +6°C° 0 mm 1 mps 744 mmHg 94%
06:00 +6°C° 0 mm 1 mps 744 mmHg 94%
07:00 +6°C° 0 mm 1 mps 744 mmHg 94%
08:00 +8°C° 0 mm 1 mps 745 mmHg 86%
09:00 +10°C° 0 mm 1 mps 745 mmHg 79%
10:00 +12°C° 0 mm 1 mps 746 mmHg 70%
11:00 +13°C° 0 mm 1 mps 745 mmHg 68%
12:00 +14°C° 0 mm 1 mps 745 mmHg 66%
13:00 +15°C° 0 mm 1 mps 745 mmHg 64%
14:00 +14°C° 0 mm 1 mps 745 mmHg 69%
15:00 +13°C° 0 mm 1 mps 745 mmHg 74%
16:00 +12°C° 0 mm 1 mps 745 mmHg 79%
17:00 +11°C° 0 mm 1 mps 746 mmHg 84%
18:00 +11°C° 0 mm 1 mps 746 mmHg 89%
19:00 +10°C° 0 mm 1 mps 746 mmHg 93%
20:00 +9°C° 0 mm 1 mps 747 mmHg 94%
21:00 +9°C° 0 mm 1 mps 747 mmHg 95%
22:00 +8°C° 0 mm 1 mps 747 mmHg 95%
23:00 +8°C° 0 mm 1 mps 747 mmHg 95%

Tomorrow, 14 August, Friday

Time Temperature Precipitation Wind Pressure Humidity
00:00 +8°C° 0 mm 1 mps 747 mmHg 96%
01:00 +8°C° 0 mm 1 mps 746 mmHg 96%
02:00 +8°C° 0 mm 1 mps 746 mmHg 96%
03:00 +8°C° 0 mm 1 mps 746 mmHg 96%
04:00 +7°C° 0 mm 0 mps 746 mmHg 96%
05:00 +8°C° 0 mm 1 mps 746 mmHg 96%
06:00 +8°C° 0 mm 1 mps 746 mmHg 96%
07:00 +7°C° 0 mm 1 mps 746 mmHg 96%
08:00 +9°C° 0 mm 1 mps 747 mmHg 92%
09:00 +10°C° 0 mm 1 mps 747 mmHg 88%
10:00 +12°C° 0 mm 1 mps 747 mmHg 84%
11:00 +13°C° 0 mm 1 mps 746 mmHg 79%
12:00 +14°C° 0 mm 1 mps 746 mmHg 73%
13:00 +16°C° 0 mm 1 mps 746 mmHg 68%
14:00 +15°C° 0.5 mm 2 mps 746 mmHg 74%
15:00 +15°C° 0.5 mm 2 mps 746 mmHg 80%
16:00 +14°C° 0.5 mm 2 mps 746 mmHg 87%
17:00 +13°C° 0.5 mm 2 mps 746 mmHg 89%
18:00 +12°C° 0.5 mm 2 mps 747 mmHg 92%
19:00 +12°C° 0.5 mm 2 mps 747 mmHg 95%
20:00 +10°C° 0.3 mm 2 mps 747 mmHg 95%
21:00 +10°C° 0.3 mm 2 mps 747 mmHg 96%
22:00 +10°C° 0.3 mm 2 mps 748 mmHg 96%
23:00 +10°C° 0.3 mm 2 mps 747 mmHg 96%

Day after tomorrow, 15 August, Saturday

Time Temperature Precipitation Wind Pressure Humidity
00:00 +10°C° 0.3 mm 2 mps 747 mmHg 96%
01:00 +11°C° 0.3 mm 1 mps 747 mmHg 97%
02:00 +10°C° 0.5 mm 1 mps 747 mmHg 97%
03:00 +10°C° 0.5 mm 1 mps 747 mmHg 97%
04:00 +9°C° 0.5 mm 1 mps 747 mmHg 97%
05:00 +10°C° 1.1 mm 1 mps 747 mmHg 97%
06:00 +10°C° 1.1 mm 1 mps 747 mmHg 98%
07:00 +11°C° 1.1 mm 1 mps 747 mmHg 98%
08:00 +11°C° 2 mm 1 mps 748 mmHg 98%
09:00 +11°C° 2 mm 1 mps 748 mmHg 97%
10:00 +11°C° 2 mm 1 mps 748 mmHg 97%
11:00 +12°C° 1.2 mm 1 mps 747 mmHg 96%
12:00 +12°C° 1.2 mm 1 mps 747 mmHg 95%
13:00 +12°C° 1.2 mm 1 mps 747 mmHg 94%
14:00 +12°C° 0.3 mm 1 mps 747 mmHg 95%
15:00 +12°C° 0.3 mm 1 mps 747 mmHg 95%
16:00 +12°C° 0.3 mm 1 mps 747 mmHg 95%
17:00 +11°C° 0.1 mm 1 mps 747 mmHg 96%
18:00 +11°C° 0.1 mm 1 mps 747 mmHg 96%
19:00 +10°C° 0.1 mm 1 mps 748 mmHg 97%
20:00 +11°C° 0.1 mm 1 mps 748 mmHg 97%
21:00 +10°C° 0.1 mm 0 mps 748 mmHg 98%
22:00 +10°C° 0.1 mm 0 mps 748 mmHg 98%
23:00 +9°C° 0.1 mm 0 mps 748 mmHg 97%

16 August, Sunday

Time Temperature Precipitation Wind Pressure Humidity
00:00 +9°C° 0.1 mm 0 mps 747 mmHg 97%
01:00 +9°C° 0.1 mm 0 mps 747 mmHg 97%
02:00 +9°C° 0 mm 0 mps 747 mmHg 97%
03:00 +8°C° 0 mm 0 mps 747 mmHg 97%
04:00 +8°C° 0 mm 0 mps 746 mmHg 97%
05:00 +9°C° 0.1 mm 1 mps 746 mmHg 97%
06:00 +9°C° 0.1 mm 1 mps 746 mmHg 97%
07:00 +9°C° 0.1 mm 1 mps 746 mmHg 97%
08:00 +10°C° 1.1 mm 1 mps 746 mmHg 97%
09:00 +10°C° 1.1 mm 1 mps 746 mmHg 97%
10:00 +11°C° 1.1 mm 1 mps 746 mmHg 97%
11:00 +11°C° 0.2 mm 1 mps 745 mmHg 96%
12:00 +12°C° 0.2 mm 2 mps 745 mmHg 94%
13:00 +12°C° 0.2 mm 2 mps 744 mmHg 93%
14:00 +12°C° 0.4 mm 2 mps 744 mmHg 93%
15:00 +12°C° 0.4 mm 2 mps 743 mmHg 92%
16:00 +12°C° 0.4 mm 2 mps 743 mmHg 92%
17:00 +12°C° 0.4 mm 2 mps 743 mmHg 94%
18:00 +10°C° 0.4 mm 2 mps 742 mmHg 95%
19:00 +9°C° 0.4 mm 2 mps 742 mmHg 97%
20:00 +10°C° 1 mm 2 mps 742 mmHg 97%
21:00 +10°C° 1 mm 2 mps 741 mmHg 97%
22:00 +10°C° 1 mm 2 mps 741 mmHg 98%
23:00 +10°C° 1.1 mm 3 mps 740 mmHg 98%

17 August, Monday

Time Temperature Precipitation Wind Pressure Humidity
00:00 +10°C° 1.1 mm 3 mps 740 mmHg 97%
01:00 +10°C° 1.1 mm 3 mps 739 mmHg 97%
02:00 +9°C° 0.8 mm 3 mps 739 mmHg 97%
03:00 +9°C° 0.8 mm 3 mps 738 mmHg 97%
04:00 +9°C° 0.8 mm 3 mps 738 mmHg 97%
05:00 +9°C° 0.5 mm 3 mps 738 mmHg 97%
06:00 +9°C° 0.5 mm 3 mps 738 mmHg 97%
07:00 +9°C° 0.5 mm 3 mps 738 mmHg 96%
08:00 +9°C° 0.1 mm 3 mps 738 mmHg 94%
09:00 +10°C° 0.1 mm 3 mps 738 mmHg 92%
10:00 +11°C° 0.1 mm 3 mps 738 mmHg 89%
11:00 +11°C° 0.2 mm 3 mps 737 mmHg 86%
12:00 +12°C° 0.2 mm 3 mps 737 mmHg 82%
13:00 +12°C° 0.2 mm 3 mps 737 mmHg 78%
14:00 +12°C° 0.2 mm 3 mps 737 mmHg 78%
15:00 +12°C° 0.2 mm 3 mps 737 mmHg 78%
16:00 +13°C° 0.2 mm 2 mps 737 mmHg 78%
17:00 +12°C° 0 mm 2 mps 737 mmHg 82%
18:00 +9°C° 0 mm 2 mps 738 mmHg 86%
19:00 +8°C° 0 mm 2 mps 738 mmHg 91%
20:00 +8°C° 0 mm 2 mps 738 mmHg 90%
21:00 +8°C° 0 mm 2 mps 738 mmHg 90%
22:00 +8°C° 0 mm 2 mps 739 mmHg 89%
23:00 +8°C° 0 mm 3 mps 738 mmHg 90%

18 August, Tuesday

Time Temperature Precipitation Wind Pressure Humidity
00:00 +7°C° 0 mm 3 mps 738 mmHg 90%
01:00 +5°C° 0 mm 3 mps 738 mmHg 90%
02:00 +5°C° 0 mm 2 mps 738 mmHg 91%
03:00 +5°C° 0 mm 2 mps 738 mmHg 92%
04:00 +4°C° 0 mm 2 mps 737 mmHg 92%
05:00 +4°C° 0 mm 2 mps 737 mmHg 91%
06:00 +4°C° 0 mm 2 mps 737 mmHg 89%
07:00 +5°C° 0 mm 2 mps 737 mmHg 88%
08:00 +7°C° 0 mm 2 mps 737 mmHg 81%
09:00 +9°C° 0 mm 2 mps 737 mmHg 75%
10:00 +12°C° 0 mm 2 mps 736 mmHg 68%
11:00 +13°C° 0 mm 2 mps 736 mmHg 67%
12:00 +13°C° 0 mm 2 mps 735 mmHg 66%
13:00 +14°C° 0 mm 2 mps 735 mmHg 64%
14:00 +14°C° 0.1 mm 2 mps 734 mmHg 67%
15:00 +14°C° 0.1 mm 1 mps 734 mmHg 70%
16:00 +14°C° 0.1 mm 1 mps 733 mmHg 73%
17:00 +12°C° 0.4 mm 1 mps 733 mmHg 79%
18:00 +11°C° 0.4 mm 1 mps 733 mmHg 85%
19:00 +9°C° 0.4 mm 1 mps 733 mmHg 92%
20:00 +8°C° 0 mm 1 mps 733 mmHg 92%
21:00 +8°C° 0 mm 1 mps 733 mmHg 93%
22:00 +6°C° 0 mm 2 mps 733 mmHg 93%
23:00 +6°C° 0.1 mm 2 mps 732 mmHg 93%
Show more